Location: Praha
(50.0830°N, 14.4670°E)
Time: 21:04:18
(UTC+02:00)

ISS - Pass Details

Date: 09 May 2021
Orbit: 418 x 421 km, 51.6° (Epoch: 07 May)

Event Time Altitude Azimuth Distance (km) Brightness Sun altitude
Exits shadow 03:36:22 11° 278° (W) 1,425 -1.4 -14.1°
Maximum altitude 03:39:32 64° 0° (N) 470 -3.4 -13.8°
Drops below altitude 10° 03:42:54 10° 83° (E) 1,506 -0.2 -13.4°
Sets 03:45:01 0° 87° (E) 2,371 0.8 -13.2°
